Weather History for KAFF - April, 2012

Change the Weather History Date:

Saturday, April 28, 2012

  Actual Average Record
Temperature  
Mean Temperature 42 °F -  
Max Temperature 55 °F 57 °F 73 °F (2001)
Min Temperature 30 °F 33 °F 26 °F (2008)
Degree Days  
Heating Degree Days 23    
Moisture  
Dew Point 25 °F    
Average Humidity 50    
Maximum Humidity 85    
Minimum Humidity 29    
Precipitation  
Precipitation 0.00 in - - ()
Sea Level Pressure  
Sea Level Pressure 29.79 in    
Wind  
Wind Speed 10 mph (SSE)    
Max Wind Speed 26 mph    
Max Gust Speed 37 mph    
Visibility 10 miles    
Events      
Averages and records for this station are not official NWS values.
T = Trace of Precipitation, MM = Missing Value Source: NWS Daily Summary

Daily Weather History Graph

Daily Weather History Graph

Search for Another Location

Airport or City:

Trip Planner

Search our weather history database for the weather conditions in past years. The results will help you decide how hot, cold, wet, or windy it might be!

Date:

Astronomy

Apr. 28, 2012 Rise Set
Actual Time 6:04 AM MDT 7:49 PM MDT
Civil Twilight 5:35 AM MDT 8:18 PM MDT
Nautical Twilight 5:01 AM MDT 8:53 PM MDT
Astronomical Twilight 4:24 AM MDT 9:30 PM MDT
Moon 11:46 AM MDT (4/28) 1:15 AM MDT (4/28)
Length of Visible Light 14h 42m
Length of Day
13h 45m
Waxing Crescent, 43% of the Moon is Illuminated
Apr 28
Waxing Crescent
Apr 29
First Quarter
May 5
Full
May 12
Last Quarter
May 20
New

Hourly Weather History & Observations

Time (MDT) Temp. Windchill Dew Point Humidity Pressure Visibility Wind Dir Wind Speed Gust Speed Precip Events Conditions
12:55 AM 39.2 °F 35.0 °F 28.2 °F 65% 29.70 in 10.0 mi SE 5.8 mph - N/A   Clear
1:55 AM 38.8 °F - 27.3 °F 63% 29.70 in 10.0 mi Calm Calm - N/A   Clear
2:55 AM 37.0 °F 34.5 °F 27.9 °F 69% 29.68 in 10.0 mi ESE 3.5 mph - N/A   Clear
3:55 AM 36.0 °F 32.1 °F 27.3 °F 71% 29.69 in 10.0 mi East 4.6 mph - N/A   Clear
4:55 AM 35.8 °F - 26.8 °F 70% 29.70 in 10.0 mi Calm Calm - N/A   Clear
5:55 AM 30.2 °F 21.9 °F 26.2 °F 85% 29.76 in 10.0 mi North 9.2 mph - N/A   Clear
6:55 AM 33.1 °F 30.0 °F 27.1 °F 79% 29.79 in 10.0 mi NNW 3.5 mph - N/A   Clear
7:55 AM 40.1 °F 32.4 °F 23.5 °F 52% 29.81 in 10.0 mi SE 13.8 mph - N/A   Clear
8:55 AM 41.7 °F 35.6 °F 25.0 °F 52% 29.81 in 10.0 mi SSE 10.4 mph - N/A   Partly Cloudy
9:55 AM 44.8 °F 38.3 °F 24.4 °F 45% 29.80 in 10.0 mi South 13.8 mph 19.6 mph N/A   Partly Cloudy
10:55 AM 48.6 °F - 25.0 °F 40% 29.78 in 10.0 mi SSE 13.8 mph - N/A   Clear
11:55 AM 51.1 °F - 23.9 °F 35% 29.79 in 10.0 mi South 17.3 mph 25.3 mph N/A   Clear
12:55 PM 52.0 °F - 23.4 °F 33% 29.79 in 10.0 mi SE 17.3 mph 24.2 mph N/A   Partly Cloudy
1:55 PM 50.7 °F - 22.5 °F 33% 29.80 in 10.0 mi SE 20.7 mph 28.8 mph N/A   Mostly Cloudy
2:55 PM 50.7 °F - 22.1 °F 33% 29.79 in 10.0 mi SE 18.4 mph 29.9 mph N/A   Partly Cloudy
3:55 PM 52.0 °F - 22.3 °F 31% 29.76 in 10.0 mi SE 21.9 mph 31.1 mph N/A   Scattered Clouds
4:55 PM 54.7 °F - 23.0 °F 29% 29.76 in 10.0 mi SSE 21.9 mph 29.9 mph N/A   Clear
5:55 PM 51.3 °F - 22.5 °F 32% 29.83 in 10.0 mi SSE 25.3 mph 36.8 mph N/A   Clear
6:55 PM 50.2 °F - 21.9 °F 33% 29.86 in 10.0 mi SSE 26.5 mph 32.2 mph N/A   Clear
7:55 PM 47.3 °F - 25.5 °F 43% 29.84 in 10.0 mi South 19.6 mph 29.9 mph N/A   Clear
8:55 PM 45.9 °F 39.4 °F 26.1 °F 46% 29.86 in 10.0 mi SSE 15.0 mph - N/A   Clear
9:55 PM 44.1 °F 37.1 °F 25.3 °F 48% 29.88 in 10.0 mi SSE 15.0 mph - N/A   Clear
10:55 PM 41.9 °F 37.5 °F 26.1 °F 53% 29.88 in 10.0 mi SSE 6.9 mph - N/A   Clear
11:55 PM 41.7 °F 35.6 °F 26.8 °F 55% 29.85 in 10.0 mi SE 10.4 mph - N/A   Clear